Погода в Нозовке

Поиск расширенной информации на нашем сайте:

Полезная информация:

Новости сайта



02.01.2020
Опубликован Долгосрочный прогноз погоды по городам России и ближнего зарубежья на январь 2020 года.
Карты: Прогноз на январь и февраль 2020 года, Сравнение прогнозируемой аномалии приземной температуры воздуха на январь 2020 года по разным моделям.




Погода в Нозовке - сегодня

Время (UTC), дата Ветер
(°,м/с) 
Видим.   Явления Облачность Т
(°С)
Тd
(°С)
f(%) Тe
(°С)
Pmin
(гПа)
dP
(гПа)
Po
(мм)
O2
(г/м3)
Тmin Tmax R s Состояние
почвы
15 29.11.20 060 (СВ) 10 км    10/10 600 м 
[Sc]
-6.2 -8 87 -8  1050.2  0.9  775  320    -6       
18 29.11.20 080 (В) 10 км    10/10 600 м 
[Sc]
-6.8 -8.6 87 -6  1050.9  0.6  775  321           
21 29.11.20 060 (СВ) 10 км    10/10 600 м 
[Sc]
-7.1 -8.9 87 -9  1051.3  0.4  775  322           
00 30.11.20 060 (СВ) 10 км    10/10 600 м 
[Sc]
-8 -9.9 86 -8  1051.4  775  323           
03 30.11.20 050 (СВ) 10 км    10/10 600 м 
[Sc]
-7.9 -9.8 86 -8  1051.8  0.4  776  323  -8      равномерный
сухой снег
100% 
06 30.11.20 060 (СВ) 10 км    10/10 600 м 
[Sc]
-6.8 -8.6 87 -6  1052  0.3  776  322           
09 30.11.20 100 (В) 10 км    10/10 600 м 
[Sc]
-5.1 -7 86 -5  1051.7  -0.2  776  319           
12 30.11.20 120 (ЮВ) 10 км    10/10 600 м 
[Sc]
-4.1 -5.8 88 -5  1051.5  0.1  776  318           
15 30.11.20 140 (ЮВ) 10 км    10/10 600 м 
[Sc]
-3.8 -5.6 87 -5  1051.3  -0.2  776  318    -3.8       
18 30.11.20 100 (В) 10 км    10/10 600 м 
[Sc]
-3.8 -5.7 87 -3  1050.8  -0.5  775  317           
21 30.11.20 160 (Ю) 10 км    9/9 600 м 
[Sc]
-3.8 -5.5 88 -3  1050.6  -0.2  775  317           
00 01.12.20 тихо ()   10 км    9/9 600 м 
[Sc]
-3.8 -5.5 88 -4  1050.2  -0.4  775  317           
03 01.12.20 тихо ()   10 км    9/9 600 м 
[Sc]
-3.7 -5.4 88 -4  1050.2  0.1  775  317  -4      равномерный
сухой снег
100% 
06 01.12.20 110 (В) 10 км    10/10 600 м 
[Sc]
-3.7 -5.6 87 -3  1050.2  0.1  775  317           
09 01.12.20 190 (Ю) 10 км    10/10 600 м 
[Sc]
-3.1 -5.4 84 -3  1049.4  -0.7  774  316           
12 01.12.20 150 (ЮВ) 10 км    10/10 600 м 
[Sc]
-3.5 -7.2 75 -3  1048.9  -0.5  774  317           
15 01.12.20 140 (ЮВ) 10 км    10/10 600 м 
[Sc]
-4.3 -6.8 83 -4  1048.3  -0.7  773  317    -2.8       
18 01.12.20 130 (ЮВ) 10 км    10/10 600 м 
[Sc]
-5.9 -7.7 87 -6  1047.6  -0.8  773  319           
21 01.12.20 120 (ЮВ) 10 км    10/10 600 м 
[Sc]
-7.3 -9 88 -7  1047.1  -0.7  772  321           
00 02.12.20 140 (ЮВ) 10 км    10/10 600 м 
[Sc]
-8.6 -10.3 87 -8  1046.6  -0.6  772  322           
03 02.12.20 200 (Ю) 10 км    10/10 600 м 
[Sc]
-9 -10.7 87 -11  1045.8  -0.7  771  322  -9      равномерный
сухой снег
100% 
06 02.12.20 210 (ЮЗ) 4000 м  слаб. снег  10/0 средняя 
[As op]
-8.8 -10.7 86 -10  1045.4  -0.4  771  322  -9.1         
09 02.12.20 210 (ЮЗ) 4000 м  слаб. снег  10/10 300 м 
[Ns]
-9.2 -11.4 84 -11  1044.6  -0.8  770  322           
12 02.12.20 210 (ЮЗ) 20000 м  {снег}  10/10 600 м 
[Sc]
-9.1 -11.3 84 -11  1043.9  -0.6  770  322           
15 02.12.20 230 (ЮЗ) 20000 м    10/10 600 м 
[Sc]
-9.2 -11.5 83 -11  1043.4  -0.5  769  322    -8.8  0.2     
Время (UTC), дата Ветер
(°,м/с) 
Видим.   Явления Облачность Т
(°С)
Тd
(°С)
f(%) Тe
(°С)
Pmin
(гПа)
dP
(гПа)
Po
(мм)
O2
(г/м3)
Тmin Tmax R s Состояние
почвы

Для получения пояснительной информации подведите курсор к названию столбца.

ПОГОДА в Нозовке - архив

Всё, что Вы хотите узнать о погоде в Нозовке - удобно и подробно!

Выберите нужную дату (начиная с 1 января 2019* года) и нажмите кнопку "Найти".
Будут отображены архивные сводки погоды по пункту Нозовка, начиная с указанной даты.


Отображать данные в формате CSV (для использования в таблицах Excel)


Внимание! Наш архив погоды предназначен исключительно для личного некоммерческого использования в познавательных целях. Если Вам необходимы официальные справки о состоянии погоды (для производственных, юридических, коммерческих и т.п. целей), обращайтесь в органы Росгидромета.

*Примечание: данная дата относится к архиву по метеостанциям СССР (Россия, СНГ, Балтия).
Архив по метеостанциям Зарубежной Европы и Азии (кроме Китая) хранится 10 дней, по другим регионам земного шара (Китай, Африка, Америка, Австралия, Океания) - 1 день.

Нозовка - район местоположения метеостанции


Название, широта, долгота, высота метеостанции:
Нозовка 57.1°ш. 54.8°д. 131 м над ур. моря [Российская Федерация]

Дополнительная информация

В oтличие oт бoльшинства пoгoдных сайтoв мы публикуем пoдрoбную метеoинфoрмацию в детальнoм прoфессиoнальнoм фoрмате.

Характеристики температуры и влажнoсти вoздуха измеряются на высoте 2 м в тени вдали oт зданий и деревьев.
Скoрoсть ветра измеряется на высoте 10 м (на урoвне рoста челoвека скoрoсть ветра ниже в 1.5-2 раза). Если метеoстанция нахoдится в гoрoде или в лесу, тo скoрoсть ветра занижена на 2-4 м/с пo сравнению с oткрытым местoм. Скoрoсть ветра над акватoриями крупных рек и oзёр, а также на вершинах хoлмoв на 2-5 м/с выше, чем в oбычных услoвиях.
Атмoсфернoе давление в разных тoчках местнoсти мoжет значительнo oтличаться oт давления на метеoстанции, в зависимoсти oт услoвий рельефа (при пoдъёме на 10 м давление пoнижается примернo на 1 мм рт.ст.).